Regional Weather Roundup
Issued by NWS Boston, MA

Home | Current Version | Previous Version | Text Only | Print | Product List | Glossary On
Versions: 1 2 3 4 5 6 7 8 9 10 11 12 13 14 15 16 17 18 19 20 21 22 23 24 25 26 27 28 29 30 31 32 33 34 35 36 37 38 39 40 41 42 43 44 45 46 47 48 49 50
000
ASUS41 KBOX 112310
RWRBOX

REGIONAL WEATHER ROUNDUP
NATIONAL WEATHER SERVICE TAUNTON MA
600 PM EST THU FEB 11 2016

NOTE:  "FAIR" INDICATES FEW OR NO CLOUDS BELOW 12,000 FEET WITH NO
SIGNIFICANT WEATHER AND/OR OBSTRUCTIONS TO VISIBILITY.  THE FOLLOWING
OBSERVATION LOCATIONS DO NOT REPORT PRESENT WEATHER...PROVINCETOWN...
SMITHFIELD...BLOCK ISLAND...KEENE...AND OXFORD.

MAZALL-120000-
EASTERN MASSACHUSETTS

CITY           SKY/WX    TMP DP  RH WIND       PRES   REMARKS
BOSTON         PTCLDY    19  -3  38 W22G33    29.85R WCI   2
BEVERLY        CLEAR     19  -4  36 W15G29    29.81R WCI   5
LAWRENCE       CLEAR     18  -2  41 W18G28    29.84R WCI   2
BEDFORD        CLEAR     17  -5  37 W15G24    29.85R WCI   2
BLUE HILL        N/A     14  -3  47 W28G38    29.79R WCI  -6
NORWOOD        CLEAR     18  -4  37 W18G29    29.86R WCI   2
MARSHFIELD     PTCLDY    23   1  39 W10G22    29.85R WCI  12
PLYMOUTH       PTCLDY    19   1  45 W16G25    29.84R WCI   4
TAUNTON        PTCLDY    21   1  41 W13G25    29.86R WCI   9
NEW BEDFORD    MOCLDY    20   3  48 W20G25    29.86R WCI   4
$$

MAZALL-120000-
CAPE COD AND THE ISLANDS

CITY           SKY/WX    TMP DP  RH WIND       PRES   REMARKS
FALMOUTH       PTCLDY    19   1  45 W22G28    29.83R WCI   3
HYANNIS        CLEAR     22  -3  33 W15G28    29.81R WCI   9
CHATHAM        MOCLDY    22   1  40 W9        29.82R WCI  12
PROVINCETOWN   PTCLDY    23   9  55 W24G36    29.80R WCI   7
NANTUCKET      PTCLDY    24   8  50 NW22G33   29.83R WCI   9
MARTHAS VNYRD  MOCLDY    22   6  50 NW20G30   29.85R WCI   7
$$

MAZALL-120000-
CENTRAL AND WESTERN MASSACHUSETTS

CITY           SKY/WX    TMP DP  RH WIND       PRES   REMARKS
WORCESTER      MOCLDY    11  -5  48 W23G37    29.81R WCI  -9
FITCHBURG      CLEAR     14  -4  44 W16G30    29.86R WCI  -2
ORANGE         CLEAR     11  -5  48 W17G28    29.89R WCI  -6
SPRINGFIELD    PTCLDY    13  -3  47 NW13G22   29.93R WCI  -1
WESTFIELD      CLOUDY    14  -3  47 NW16G30   29.94R WCI  -2
NORTH ADAMS    CLOUDY    11  -4  51 W16G26    29.93R WCI  -6
PITTSFIELD     CLOUDY     9  -1  64 NW20G33   29.87R WCI -10
$$

RIZALL-120000-
RHODE ISLAND

CITY           SKY/WX    TMP DP  RH WIND       PRES   REMARKS
PROVIDENCE     PTCLDY    19   2  47 W17G25    29.89R WCI   4
NEWPORT        PTCLDY    20   3  48 NW23G35   29.87R WCI   3
BLOCK ISLAND   CLOUDY    23   3  42 NW18G29   29.88R WCI   9
SMITHFIELD     PTCLDY    16   0  48 W17G25    29.85R WCI   0
WESTERLY       PTCLDY    20   5  52 NW10G21   29.92R WCI   9
$$

CTZALL-120000-
CONNECTICUT

CITY           SKY/WX    TMP DP  RH WIND       PRES   REMARKS
BRADLEY INTL   PTCLDY    14   2  58 NW14      29.94R WCI  -1
HARTFORD       MOCLDY    18   1  47 W13G23    29.98R WCI   5
BRIDGEPORT     PTCLDY    21  -1  38 W18G31    29.99R WCI   6
DANBURY        PTCLDY    17  -7  34 W10G29    29.98R WCI   5
GROTON         CLOUDY    20   4  50 NW18G31   29.93R WCI   5
NEW HAVEN      PTCLDY    22   1  40 NW15G30   29.98R WCI   9
CHESTER        FAIR      21  -2  35 NW12G32   29.93R WCI   9
MERIDEN        MOCLDY    20  -5  33 NW18G30   29.97R WCI   5
WILLIMANTIC    PTCLDY    17   3  54 NW12G20   29.93R WCI   4
OXFORD         MOCLDY    16  -9  32 NW14G33   29.93R WCI   1
$$

MEZ002-015-021-024-NHZ003-005-008-011-012-014-VTZ005-008-120000-
NORTHERN NEW ENGLAND

CITY           SKY/WX    TMP DP  RH WIND       PRES   REMARKS
PORTLAND ME    SNOW      20  18  92 NW13      29.75R VSB 1/2 WCI   7
BANGOR ME      MOCLDY    21  10  62 NW20      29.69R WCI   6
CONCORD NH     PTCLDY    17   2  51 W17G25    29.81R WCI   1
MANCHESTER NH  PTCLDY    18   0  45 W12       29.82R WCI   5
NASHUA NH      CLEAR     16   0  48 W14       29.85R WCI   1
PORTSMOUTH NH  PTCLDY    20   6  55 W14G21    29.77R WCI   7
JAFFREY NH     MOCLDY    10  -4  53 W16G24    29.81R WCI  -7
KEENE NH       PTCLDY    12  -4  48 W14       29.88R WCI  -3
BURLINGTON VT  CLOUDY     8  -5  55 NW16      29.96R WCI -10
MT. WASHINGTON ICE FOG  -15 -15 100 W37G44      N/A  VSB 1/16WCI -48
$$

NYZ052-076-120000-
EASTERN NEW YORK

CITY           SKY/WX    TMP DP  RH WIND       PRES   REMARKS
ALBANY         FLURRIES  13  -1  54 NW16G29   30.00R WCI  -3
NEW YORK CITY  MOCLDY    24   1  36 W24G39    30.03R WCI   8
$$

ANZALL-120000-
MARINE OBSERVATIONS

STATION/POSITION TIME  TEMP    WIND        PRES    VSBY  WAVE
                       AIR SEA DIR/SP/G                  HT/PER
                 (UTC) (F)     (DEG/KT/KT) (MB)    (MI)  (FT/S)
BOSTON BUOY      2250   23 41  280/ 29/ 35 1008.7R         5/ 5
BUZZARDS BAY     2300          290/ 33/ 35 1011.8R
NANTUCKET SOUND  2250   27 39  290/ 27/ 35 1009.1R         5/ 5
MASS BAY-STELLWA 2204   25 41  280/ 25/ 31   N/A    1 7/8  4/ 4
ISLE OF SHOALS   2300   22     280/ 22/ 27 1007.4R
S OF BLOCK IS    NOT AVBL
$$

......................KEY.........................
  SKY/WX - SKY CONDITION/PRESENT WEATHER
  TMP    - TEMPERATURE IN FAHRENHEIT
  DWPT   - DEWPOINT IN FAHRENHEIT
  RH     - RELATIVE HUMIDITY IN PERCENT
  WIND   - DIRECTION AND SPEED IN MPH
  PRES   - MEAN SEA LEVEL PRESSURE IN INCHES OF HG
  WCI    - WIND CHILL INDEX
  VSB    - VISIBILITY IN MILES
  HX     - HEAT INDEX
  TC     - TEMPERATURE IN CELSIUS
  VRB    - VARIABLE WIND DIRECTION
  N/A    - NOT AVAILABLE



USA.gov is the U.S. government's official web portal to all federal, state and local government web resources and services.